QPF
0.20 0.16 0.15 0.18 0.19 0.17 0.13 0.11 0.10 0.10 0.08 0.07 0.06 0.06 0.07 0.05 0.04 0.03 0.03 0.03 0.03 0.03 0.03 0.02 0.01 0.02 0.01 0.01 0.01 0.01 0.01 0.01 0.01 0.00 0.00 0.00 0.01 0.01 0.01 0.00 0.00 0.00 0.00
0.14 0.13 0.13 0.14 0.15 0.16 0.16 0.14 0.14 0.11 0.07 0.06 0.07 0.08 0.06 0.04 0.04 0.03 0.03 0.03 0.04 0.03 0.03 0.03 0.03 0.03 0.02 0.02 0.02 0.02 0.01 0.01 0.01 0.00 0.00 0.00 0.01 0.01 0.01 0.01 0.00 0.00 0.00
0.13 0.13 0.14 0.18 0.16 0.18 0.19 0.16 0.14 0.12 0.09 0.09 0.08 0.08 0.07 0.06 0.06 0.05 0.05 0.05 0.04 0.04 0.04 0.03 0.02 0.02 0.02 0.02 0.03 0.02 0.02 0.01 0.01 0.01 0.00 0.00 0.00 0.01 0.01 0.01 0.01 0.00 0.00
0.11 0.12 0.13 0.17 0.16 0.18 0.18 0.17 0.14 0.11 0.11 0.10 0.08 0.08 0.09 0.10 0.09 0.08 0.07 0.05 0.05 0.05 0.04 0.04 0.03 0.02 0.02 0.03 0.04 0.03 0.03 0.02 0.02 0.02 0.01 0.00 0.01 0.01 0.02 0.02 0.01 0.01 0.01
0.08 0.08 0.09 0.10 0.13 0.16 0.17 0.17 0.15 0.14 0.11 0.12 0.12 0.12 0.13 0.12 0.11 0.11 0.09 0.08 0.07 0.06 0.06 0.05 0.05 0.06 0.07 0.06 0.04 0.03 0.03 0.03 0.03 0.03 0.02 0.01 0.01 0.01 0.01 0.02 0.01 0.01 0.01
0.06 0.08 0.07 0.06 0.08 0.11 0.12 0.14 0.12 0.14 0.14 0.14 0.14 0.14 0.14 0.13 0.12 0.14 0.13 0.12 0.12 0.10 0.08 0.08 0.07 0.08 0.07 0.05 0.04 0.04 0.04 0.04 0.03 0.02 0.02 0.02 0.01 0.01 0.01 0.02 0.01 0.01 0.00
0.07 0.09 0.08 0.08 0.08 0.11 0.10 0.10 0.10 0.12 0.15 0.14 0.15 0.16 0.15 0.14 0.16 0.16 0.17 0.15 0.13 0.11 0.09 0.07 0.07 0.07 0.08 0.07 0.08 0.08 0.05 0.04 0.03 0.02 0.01 0.01 0.01 0.02 0.02 0.02 0.01 0.01 0.01
0.12 0.14 0.12 0.11 0.12 0.13 0.12 0.10 0.10 0.10 0.12 0.14 0.15 0.15 0.14 0.14 0.15 0.14 0.13 0.11 0.09 0.08 0.06 0.05 0.05 0.04 0.05 0.06 0.06 0.06 0.06 0.05 0.04 0.03 0.01 0.01 0.01 0.02 0.02 0.02 0.02 0.02 0.01
0.13 0.14 0.13 0.14 0.15 0.15 0.12 0.11 0.11 0.12 0.13 0.13 0.13 0.14 0.15 0.14 0.14 0.12 0.12 0.09 0.07 0.06 0.05 0.04 0.04 0.03 0.03 0.03 0.02 0.02 0.03 0.03 0.04 0.04 0.03 0.02 0.02 0.03 0.03 0.04 0.03 0.03 0.02
0.12 0.10 0.08 0.09 0.12 0.15 0.15 0.14 0.15 0.15 0.15 0.16 0.15 0.15 0.16 0.15 0.16 0.16 0.13 0.10 0.08 0.07 0.06 0.05 0.03 0.03 0.03 0.02 0.02 0.02 0.02 0.02 0.03 0.04 0.03 0.03 0.03 0.04 0.05 0.05 0.04 0.04 0.03
0.09 0.09 0.10 0.12 0.13 0.14 0.17 0.17 0.17 0.17 0.16 0.15 0.14 0.14 0.16 0.18 0.17 0.15 0.13 0.11 0.09 0.07 0.05 0.04 0.03 0.03 0.02 0.03 0.02 0.02 0.02 0.02 0.01 0.02 0.03 0.03 0.03 0.04 0.05 0.06 0.07 0.07 0.06
0.11 0.12 0.14 0.16 0.15 0.15 0.15 0.14 0.16 0.17 0.19 0.16 0.14 0.13 0.13 0.12 0.10 0.10 0.10 0.09 0.06 0.04 0.02 0.02 0.02 0.02 0.01 0.01 0.01 0.01 0.01 0.01 0.01 0.01 0.02 0.02 0.02 0.02 0.03 0.05 0.06 0.07 0.07
0.11 0.13 0.15 0.15 0.13 0.12 0.11 0.10 0.09 0.10 0.09 0.09 0.09 0.09 0.07 0.06 0.05 0.05 0.05 0.05 0.04 0.04 0.04 0.04 0.03 0.02 0.01 0.00 0.00 0.01 0.01 0.01 0.01 0.01 0.01 0.02 0.01 0.01 0.02 0.02 0.03 0.04 0.04
0.09 0.09 0.10 0.10 0.08 0.07 0.07 0.06 0.06 0.06 0.06 0.06 0.07 0.07 0.07 0.07 0.07 0.06 0.05 0.05 0.06 0.05 0.03 0.02 0.01 0.01 0.01 0.01 0.01 0.01 0.01 0.01 0.01 0.01 0.01 0.01 0.01 0.01 0.01 0.01 0.02 0.02 0.03
0.09 0.09 0.09 0.09 0.08 0.07 0.07 0.06 0.06 0.06 0.06 0.06 0.06 0.06 0.05 0.04 0.04 0.03 0.03 0.03 0.03 0.02 0.02 0.02 0.02 0.02 0.01 0.01 0.01 0.01 0.01 0.01 0.01 0.01 0.01 0.01 0.01 0.01 0.01 0.01 0.01 0.01 0.02
0.08 0.09 0.09 0.08 0.07 0.06 0.05 0.05 0.05 0.06 0.05 0.03 0.03 0.03 0.03 0.03 0.03 0.03 0.02 0.02 0.01 0.01 0.01 0.01 0.01 0.01 0.01 0.01 0.01 0.01 0.00 0.00 0.00 0.01 0.01 0.01 0.01 0.02 0.02 0.02 0.02 0.02 0.02
0.06 0.07 0.07 0.06 0.05 0.04 0.05 0.05 0.04 0.03 0.02 0.02 0.01 0.01 0.01 0.01 0.01 0.01 0.01 0.01 0.01 0.01 0.01 0.01 0.00 0.00 0.00 0.00 0.00 0.00 0.00 0.01 0.01 0.01 0.01 0.01 0.02 0.03 0.04 0.04 0.04 0.03 0.03
0.04 0.04 0.03 0.03 0.03 0.02 0.02 0.02 0.01 0.01 0.01 0.01 0.00 0.00 0.00 0.00 0.00 0.01 0.01 0.01 0.01 0.01 0.00 0.00 0.00 0.00 0.00 0.00 0.00 0.00 0.01 0.01 0.01 0.01 0.01 0.01 0.02 0.02 0.03 0.03 0.03 0.04 0.03
0.01 0.01 0.01 0.01 0.01 0.01 0.01 0.01 0.01 0.00 0.00 0.00 0.00 0.00 0.00 0.00 0.00 0.00 0.00 0.00 0.00 0.01 0.00 0.00 0.00 0.00 0.00 0.00 0.00 0.01 0.01 0.01 0.01 0.01 0.01 0.00 0.00 0.01 0.01 0.01 0.01 0.01 0.01
0.01 0.01 0.01 0.01 0.00 0.00 0.00 0.00 0.00 0.00 0.00 0.00 0.00 0.00 0.00 0.00 0.00 0.00 0.00 0.00 0.00 0.00 0.00 0.00 0.00 0.00 0.00 0.00 0.00 0.00 0.00 0.00 0.00 0.00 0.00 0.00 0.00 0.00 0.00 0.00 0.00 0.00 0.00
0.00 0.01 0.01 0.00 0.00 0.00 0.00 0.00 0.00 0.00 0.00 0.00 0.00 0.00 0.00 0.00 0.00 0.00 0.00 0.00 0.00 0.00 0.00 0.00 0.00 0.00 0.00 0.00 0.00 0.00 0.00 0.00 0.00 0.00 0.00 0.00 0.00 0.00 0.00 0.00 0.00 0.00 0.00
0.00 0.00 0.00 0.00 0.00 0.00 0.00 0.00 0.00 0.00 0.00 0.00 0.00 0.00 0.00 0.00 0.00 0.00 0.00 0.00 0.00 0.00 0.00 0.00 0.00 0.00 0.00 0.00 0.00 0.00 0.00 0.00 0.00 0.00 0.00 0.00 0.00 0.00 0.00 0.00 0.00 0.00 0.00
0.00 0.00 0.00 0.00 0.00 0.00 0.00 0.00 0.00 0.00 0.00 0.00 0.00 0.00 0.00 0.00 0.00 0.00 0.00 0.00 0.00 0.00 0.00 0.00 0.00 0.00 0.00 0.00 0.00 0.00 0.00 0.00 0.00 0.00 0.00 0.00 0.00 0.00 0.00 0.00 0.00 0.00 0.01
0.00 0.00 0.00 0.00 0.00 0.00 0.00 0.00 0.00 0.00 0.00 0.00 0.00 0.00 0.00 0.00 0.00 0.00 0.00 0.00 0.00 0.00 0.00 0.00 0.00 0.00 0.00 0.00 0.00 0.00 0.00 0.00 0.00 0.00 0.00 0.00 0.00 0.00 0.00 0.00 0.00 0.01 0.01
0.00 0.00 0.00 0.00 0.00 0.00 0.00 0.00 0.00 0.00 0.00 0.00 0.00 0.00 0.00 0.00 0.00 0.00 0.00 0.00 0.00 0.00 0.00 0.00 0.00 0.00 0.00 0.00 0.00 0.00 0.00 0.00 0.00 0.00 0.00 0.00 0.00 0.00 0.00 0.01 0.01 0.01 0.01
0.00 0.00 0.00 0.00 0.00 0.00 0.00 0.00 0.00 0.00 0.00 0.00 0.00 0.00 0.00 0.00 0.00 0.00 0.00 0.00 0.00 0.00 0.00 0.00 0.00 0.00 0.00 0.00 0.00 0.01 0.01 0.01 0.01 0.01 0.01 0.01 0.01 0.01 0.01 0.01 0.01 0.01 0.01
MSLP
1010.77 1011.27 1011.84 1012.44 1013.01 1013.54 1013.99 1014.39 1014.73 1015.03 1015.31 1015.59 1015.86 1016.13 1016.38 1016.63 1016.85 1017.06 1017.26 1017.48 1017.71 1017.96 1018.23 1018.51 1018.78 1019.02 1019.21 1019.34 1019.41 1019.41 1019.35 1019.25 1019.12 1018.97 1018.82 1018.66 1018.49 1018.32 1018.14 1017.98 1017.82 1017.70 1017.62
1010.88 1011.34 1011.86 1012.39 1012.91 1013.38 1013.81 1014.17 1014.50 1014.79 1015.07 1015.34 1015.60 1015.86 1016.10 1016.34 1016.56 1016.77 1016.98 1017.19 1017.42 1017.66 1017.91 1018.17 1018.41 1018.63 1018.80 1018.93 1019.00 1019.03 1019.02 1018.99 1018.93 1018.86 1018.77 1018.66 1018.52 1018.36 1018.16 1017.95 1017.74 1017.54 1017.38
1011.14 1011.56 1012.01 1012.46 1012.88 1013.27 1013.62 1013.94 1014.22 1014.49 1014.75 1015.02 1015.28 1015.54 1015.78 1016.02 1016.24 1016.45 1016.65 1016.86 1017.08 1017.30 1017.54 1017.77 1017.98 1018.18 1018.34 1018.46 1018.55 1018.62 1018.66 1018.69 1018.70 1018.71 1018.69 1018.64 1018.54 1018.40 1018.20 1017.97 1017.72 1017.46 1017.23
1011.46 1011.84 1012.21 1012.56 1012.88 1013.17 1013.42 1013.66 1013.90 1014.14 1014.39 1014.66 1014.93 1015.20 1015.46 1015.70 1015.93 1016.14 1016.33 1016.52 1016.72 1016.92 1017.13 1017.33 1017.53 1017.70 1017.86 1017.99 1018.10 1018.19 1018.28 1018.37 1018.45 1018.52 1018.56 1018.57 1018.52 1018.42 1018.24 1018.01 1017.74 1017.45 1017.17
1011.74 1012.07 1012.37 1012.62 1012.83 1013.01 1013.18 1013.35 1013.54 1013.77 1014.02 1014.31 1014.61 1014.90 1015.18 1015.44 1015.67 1015.87 1016.06 1016.23 1016.40 1016.57 1016.75 1016.93 1017.10 1017.27 1017.42 1017.55 1017.68 1017.80 1017.93 1018.06 1018.19 1018.31 1018.41 1018.47 1018.47 1018.41 1018.27 1018.06 1017.79 1017.49 1017.18
1011.85 1012.15 1012.38 1012.55 1012.68 1012.77 1012.87 1013.00 1013.18 1013.40 1013.69 1014.01 1014.35 1014.69 1015.00 1015.28 1015.51 1015.71 1015.87 1016.02 1016.16 1016.30 1016.45 1016.61 1016.77 1016.93 1017.08 1017.23 1017.38 1017.52 1017.67 1017.82 1017.98 1018.14 1018.27 1018.37 1018.41 1018.39 1018.29 1018.11 1017.87 1017.57 1017.25
1011.73 1012.00 1012.19 1012.31 1012.38 1012.44 1012.51 1012.64 1012.83 1013.10 1013.43 1013.82 1014.22 1014.61 1014.96 1015.26 1015.49 1015.68 1015.82 1015.94 1016.05 1016.17 1016.30 1016.44 1016.60 1016.76 1016.93 1017.09 1017.25 1017.41 1017.57 1017.73 1017.90 1018.06 1018.21 1018.33 1018.40 1018.40 1018.33 1018.19 1017.98 1017.70 1017.39
1011.35 1011.61 1011.78 1011.90 1011.97 1012.03 1012.14 1012.31 1012.57 1012.91 1013.32 1013.78 1014.25 1014.69 1015.08 1015.39 1015.63 1015.81 1015.93 1016.02 1016.11 1016.21 1016.33 1016.48 1016.65 1016.83 1017.01 1017.19 1017.36 1017.53 1017.69 1017.85 1018.00 1018.15 1018.29 1018.40 1018.47 1018.49 1018.44 1018.32 1018.14 1017.88 1017.58
1010.76 1011.03 1011.23 1011.37 1011.49 1011.63 1011.82 1012.09 1012.44 1012.88 1013.39 1013.93 1014.46 1014.95 1015.36 1015.69 1015.93 1016.09 1016.19 1016.27 1016.35 1016.44 1016.57 1016.74 1016.93 1017.13 1017.35 1017.55 1017.74 1017.91 1018.06 1018.20 1018.33 1018.44 1018.55 1018.63 1018.68 1018.69 1018.64 1018.53 1018.35 1018.11 1017.81
1010.10 1010.39 1010.64 1010.86 1011.07 1011.32 1011.63 1012.02 1012.50 1013.05 1013.65 1014.26 1014.85 1015.36 1015.79 1016.12 1016.35 1016.50 1016.59 1016.66 1016.74 1016.85 1017.00 1017.19 1017.42 1017.66 1017.91 1018.14 1018.34 1018.52 1018.66 1018.77 1018.86 1018.94 1019.00 1019.03 1019.04 1019.02 1018.94 1018.82 1018.62 1018.38 1018.07
1009.50 1009.83 1010.15 1010.47 1010.81 1011.20 1011.65 1012.17 1012.77 1013.42 1014.10 1014.76 1015.38 1015.90 1016.33 1016.65 1016.86 1016.99 1017.08 1017.16 1017.25 1017.38 1017.57 1017.80 1018.07 1018.35 1018.64 1018.90 1019.12 1019.30 1019.43 1019.52 1019.57 1019.59 1019.60 1019.58 1019.53 1019.45 1019.34 1019.17 1018.95 1018.67 1018.34
1009.12 1009.50 1009.90 1010.34 1010.80 1011.33 1011.91 1012.56 1013.25 1013.98 1014.70 1015.39 1016.00 1016.52 1016.92 1017.21 1017.41 1017.53 1017.62 1017.71 1017.82 1017.99 1018.22 1018.49 1018.80 1019.13 1019.45 1019.73 1019.97 1020.15 1020.27 1020.34 1020.35 1020.33 1020.28 1020.20 1020.10 1019.96 1019.78 1019.56 1019.30 1018.98 1018.61
1009.07 1009.50 1009.98 1010.51 1011.10 1011.74 1012.43 1013.16 1013.92 1014.68 1015.41 1016.09 1016.67 1017.15 1017.51 1017.77 1017.95 1018.06 1018.16 1018.27 1018.42 1018.62 1018.88 1019.20 1019.54 1019.90 1020.24 1020.55 1020.79 1020.97 1021.08 1021.13 1021.13 1021.07 1020.98 1020.85 1020.68 1020.49 1020.25 1019.97 1019.64 1019.27 1018.85
1009.41 1009.88 1010.42 1011.02 1011.68 1012.40 1013.15 1013.93 1014.71 1015.46 1016.17 1016.80 1017.33 1017.75 1018.07 1018.30 1018.45 1018.57 1018.68 1018.82 1018.99 1019.23 1019.52 1019.86 1020.23 1020.60 1020.95 1021.26 1021.51 1021.68 1021.79 1021.83 1021.80 1021.73 1021.60 1021.44 1021.23 1020.98 1020.68 1020.34 1019.95 1019.52 1019.06
1010.12 1010.60 1011.17 1011.81 1012.51 1013.25 1014.02 1014.80 1015.55 1016.26 1016.91 1017.47 1017.94 1018.30 1018.57 1018.77 1018.92 1019.05 1019.18 1019.34 1019.54 1019.81 1020.12 1020.47 1020.84 1021.20 1021.54 1021.83 1022.07 1022.24 1022.34 1022.37 1022.34 1022.26 1022.12 1021.93 1021.70 1021.41 1021.06 1020.67 1020.23 1019.74 1019.22
1011.12 1011.59 1012.15 1012.78 1013.48 1014.21 1014.95 1015.68 1016.38 1017.02 1017.60 1018.09 1018.48 1018.79 1019.03 1019.22 1019.37 1019.51 1019.66 1019.85 1020.09 1020.36 1020.68 1021.02 1021.36 1021.70 1022.01 1022.27 1022.48 1022.63 1022.72 1022.75 1022.72 1022.64 1022.51 1022.31 1022.06 1021.75 1021.37 1020.94 1020.45 1019.91 1019.33
1012.27 1012.71 1013.23 1013.83 1014.48 1015.16 1015.85 1016.52 1017.15 1017.72 1018.22 1018.64 1018.98 1019.26 1019.48 1019.66 1019.83 1019.99 1020.18 1020.39 1020.64 1020.92 1021.22 1021.54 1021.84 1022.14 1022.40 1022.61 1022.79 1022.91 1022.98 1023.01 1022.98 1022.91 1022.78 1022.59 1022.33 1022.01 1021.61 1021.14 1020.62 1020.04 1019.42
1013.44 1013.82 1014.29 1014.84 1015.43 1016.06 1016.68 1017.28 1017.84 1018.35 1018.79 1019.16 1019.47 1019.73 1019.95 1020.14 1020.34 1020.53 1020.75 1020.98 1021.24 1021.51 1021.79 1022.06 1022.32 1022.55 1022.75 1022.92 1023.04 1023.13 1023.18 1023.20 1023.17 1023.10 1022.97 1022.78 1022.53 1022.19 1021.78 1021.29 1020.73 1020.12 1019.47
1014.50 1014.84 1015.26 1015.74 1016.28 1016.85 1017.42 1017.97 1018.47 1018.93 1019.34 1019.68 1019.98 1020.24 1020.47 1020.70 1020.92 1021.14 1021.38 1021.64 1021.90 1022.15 1022.40 1022.62 1022.82 1022.99 1023.13 1023.23 1023.31 1023.35 1023.37 1023.36 1023.32 1023.24 1023.11 1022.91 1022.64 1022.30 1021.87 1021.37 1020.79 1020.15 1019.48
1015.40 1015.70 1016.08 1016.53 1017.03 1017.56 1018.09 1018.60 1019.08 1019.51 1019.90 1020.24 1020.54 1020.82 1021.07 1021.32 1021.57 1021.82 1022.08 1022.34 1022.59 1022.83 1023.04 1023.22 1023.36 1023.47 1023.54 1023.58 1023.60 1023.59 1023.57 1023.53 1023.46 1023.35 1023.19 1022.98 1022.69 1022.33 1021.89 1021.36 1020.77 1020.13 1019.44
1016.13 1016.41 1016.77 1017.21 1017.69 1018.20 1018.72 1019.22 1019.69 1020.12 1020.51 1020.86 1021.17 1021.46 1021.74 1022.01 1022.27 1022.54 1022.81 1023.06 1023.30 1023.51 1023.68 1023.82 1023.91 1023.96 1023.97 1023.96 1023.92 1023.86 1023.79 1023.70 1023.58 1023.43 1023.24 1022.98 1022.66 1022.27 1021.81 1021.27 1020.67 1020.02 1019.34
1016.73 1017.02 1017.39 1017.83 1018.32 1018.84 1019.37 1019.87 1020.35 1020.78 1021.18 1021.53 1021.86 1022.15 1022.44 1022.72 1022.99 1023.26 1023.52 1023.76 1023.97 1024.15 1024.29 1024.39 1024.43 1024.43 1024.40 1024.33 1024.24 1024.12 1023.99 1023.85 1023.67 1023.47 1023.22 1022.91 1022.55 1022.12 1021.63 1021.08 1020.48 1019.84 1019.18
1017.27 1017.59 1018.00 1018.47 1018.98 1019.52 1020.06 1020.58 1021.06 1021.50 1021.89 1022.25 1022.57 1022.86 1023.14 1023.41 1023.67 1023.92 1024.16 1024.38 1024.56 1024.71 1024.82 1024.88 1024.88 1024.85 1024.77 1024.66 1024.52 1024.35 1024.16 1023.95 1023.72 1023.44 1023.13 1022.77 1022.35 1021.88 1021.36 1020.80 1020.20 1019.58 1018.94
1017.84 1018.21 1018.66 1019.16 1019.71 1020.26 1020.81 1021.33 1021.81 1022.25 1022.63 1022.97 1023.28 1023.55 1023.81 1024.05 1024.28 1024.50 1024.71 1024.90 1025.05 1025.17 1025.24 1025.26 1025.24 1025.17 1025.06 1024.91 1024.73 1024.52 1024.28 1024.01 1023.71 1023.37 1022.99 1022.57 1022.10 1021.59 1021.04 1020.46 1019.87 1019.27 1018.67
1018.50 1018.92 1019.40 1019.94 1020.49 1021.05 1021.60 1022.11 1022.57 1022.98 1023.35 1023.66 1023.94 1024.18 1024.41 1024.62 1024.81 1024.99 1025.16 1025.31 1025.42 1025.51 1025.55 1025.55 1025.50 1025.40 1025.26 1025.09 1024.87 1024.62 1024.34 1024.02 1023.66 1023.26 1022.83 1022.35 1021.83 1021.28 1020.71 1020.12 1019.53 1018.95 1018.39
1019.27 1019.72 1020.22 1020.76 1021.32 1021.86 1022.38 1022.86 1023.29 1023.67 1024.00 1024.28 1024.52 1024.73 1024.92 1025.09 1025.25 1025.39 1025.52 1025.63 1025.71 1025.76 1025.77 1025.74 1025.67 1025.55 1025.39 1025.19 1024.96 1024.68 1024.36 1024.01 1023.61 1023.17 1022.69 1022.17 1021.61 1021.03 1020.43 1019.83 1019.24 1018.67 1018.14
Thickness
5743 5742 5739 5737 5736 5735 5733 5732 5732 5731 5731 5729 5729 5727 5726 5725 5725 5723 5722 5722 5720 5719 5719 5718 5718 5718 5717 5717 5716 5715 5713 5711 5706 5709 5713 5717 5717 5717 5716 5714 5712 5710 5709
5743 5741 5738 5736 5734 5733 5732 5731 5730 5729 5729 5729 5727 5726 5724 5724 5722 5721 5720 5719 5718 5716 5716 5715 5714 5714 5713 5712 5711 5710 5709 5709 5705 5703 5706 5709 5711 5711 5711 5708 5708 5706 5705
5741 5738 5736 5735 5732 5731 5730 5730 5729 5728 5727 5726 5725 5723 5722 5721 5720 5719 5718 5717 5716 5715 5714 5712 5711 5709 5708 5707 5707 5706 5705 5705 5703 5700 5699 5702 5703 5704 5703 5702 5702 5701 5700
5739 5736 5734 5733 5732 5730 5729 5728 5727 5726 5724 5723 5721 5720 5720 5719 5718 5717 5715 5714 5713 5712 5711 5710 5708 5706 5705 5704 5703 5701 5700 5698 5697 5694 5693 5693 5694 5695 5694 5692 5692 5693 5693
5736 5734 5732 5731 5730 5728 5726 5725 5724 5723 5722 5720 5717 5716 5716 5715 5714 5712 5711 5711 5709 5708 5707 5706 5705 5704 5703 5702 5700 5697 5695 5692 5690 5687 5686 5685 5685 5684 5684 5684 5683 5684 5685
5732 5730 5730 5728 5727 5725 5724 5722 5720 5719 5718 5716 5714 5712 5711 5711 5710 5709 5708 5706 5705 5703 5701 5701 5700 5699 5699 5698 5697 5695 5692 5688 5684 5681 5679 5677 5678 5677 5677 5676 5674 5672 5672
5727 5726 5725 5724 5723 5721 5720 5718 5716 5715 5714 5711 5709 5707 5705 5705 5705 5704 5703 5701 5699 5697 5696 5694 5694 5694 5692 5691 5690 5688 5686 5684 5682 5677 5673 5672 5671 5670 5668 5667 5665 5663 5664
5723 5721 5720 5719 5718 5716 5714 5713 5712 5711 5708 5705 5702 5700 5699 5698 5698 5698 5696 5694 5691 5690 5689 5687 5685 5684 5684 5682 5681 5679 5677 5675 5673 5672 5669 5668 5666 5664 5662 5659 5657 5656 5657
5718 5716 5715 5714 5713 5711 5709 5707 5706 5703 5700 5697 5695 5692 5690 5689 5690 5690 5689 5686 5683 5681 5679 5678 5677 5674 5673 5673 5670 5667 5665 5664 5663 5662 5660 5659 5657 5655 5653 5649 5646 5642 5642
5713 5712 5711 5710 5709 5706 5704 5701 5698 5694 5690 5689 5685 5683 5682 5680 5680 5681 5680 5677 5673 5670 5668 5667 5666 5664 5662 5661 5658 5656 5653 5651 5649 5649 5648 5647 5645 5644 5641 5637 5634 5630 5628
5709 5707 5705 5704 5702 5700 5697 5693 5690 5686 5683 5679 5676 5673 5671 5670 5670 5671 5670 5667 5664 5660 5657 5655 5653 5652 5651 5649 5646 5643 5641 5638 5636 5634 5632 5631 5630 5628 5626 5624 5621 5618 5614
5701 5699 5697 5696 5695 5692 5688 5684 5681 5678 5673 5668 5665 5661 5659 5658 5658 5658 5657 5656 5654 5650 5646 5644 5642 5641 5639 5636 5633 5631 5628 5626 5623 5619 5617 5614 5612 5610 5609 5608 5606 5604 5601
5690 5688 5685 5684 5682 5681 5678 5674 5670 5667 5662 5657 5653 5649 5646 5644 5644 5644 5643 5642 5641 5637 5634 5632 5630 5628 5625 5622 5620 5617 5614 5610 5606 5602 5599 5596 5594 5593 5592 5590 5589 5587 5586
5678 5675 5673 5671 5668 5666 5664 5662 5658 5653 5649 5645 5641 5637 5633 5632 5630 5630 5629 5627 5626 5624 5621 5619 5617 5613 5610 5606 5603 5599 5596 5592 5588 5583 5580 5578 5576 5575 5573 5571 5569 5567 5565
5667 5663 5660 5657 5654 5650 5647 5643 5642 5639 5637 5633 5628 5625 5622 5618 5616 5616 5614 5612 5611 5608 5606 5603 5600 5596 5591 5587 5583 5580 5576 5573 5569 5565 5562 5559 5557 5554 5552 5550 5548 5546 5543
5653 5650 5648 5644 5640 5638 5634 5628 5625 5624 5621 5619 5616 5613 5609 5607 5605 5603 5600 5599 5596 5593 5589 5583 5578 5574 5570 5566 5562 5559 5556 5553 5549 5546 5543 5540 5537 5534 5532 5530 5528 5525 5524
5642 5639 5636 5633 5629 5626 5623 5619 5612 5608 5606 5604 5601 5599 5596 5594 5591 5588 5585 5583 5579 5576 5570 5563 5558 5554 5551 5547 5544 5540 5536 5533 5530 5526 5522 5519 5517 5514 5512 5510 5509 5507 5506
5630 5628 5625 5622 5619 5615 5611 5606 5602 5598 5593 5588 5586 5584 5582 5579 5576 5573 5570 5566 5560 5556 5550 5545 5540 5537 5533 5529 5525 5521 5517 5514 5510 5507 5504 5500 5497 5495 5493 5492 5491 5491 5490
5618 5616 5614 5610 5607 5602 5598 5594 5589 5584 5579 5574 5571 5569 5566 5563 5560 5556 5553 5547 5541 5536 5532 5527 5523 5519 5515 5510 5507 5503 5499 5496 5492 5489 5486 5483 5481 5479 5477 5477 5476 5477 5477
5606 5605 5603 5599 5594 5590 5585 5580 5575 5570 5565 5560 5556 5553 5550 5548 5543 5537 5533 5528 5523 5519 5514 5510 5506 5502 5497 5493 5489 5485 5482 5479 5476 5473 5471 5469 5468 5466 5464 5464 5463 5463 5464
5594 5592 5590 5586 5581 5577 5572 5567 5562 5556 5551 5546 5542 5539 5536 5531 5525 5520 5515 5511 5507 5502 5498 5494 5489 5485 5481 5477 5474 5470 5467 5464 5462 5460 5458 5457 5456 5455 5454 5453 5453 5454 5454
5583 5580 5576 5572 5568 5564 5559 5554 5548 5543 5538 5533 5528 5525 5521 5515 5510 5505 5500 5496 5492 5488 5484 5480 5475 5471 5468 5464 5461 5457 5454 5452 5451 5449 5448 5447 5446 5446 5445 5445 5446 5446 5446
5571 5568 5564 5559 5555 5551 5546 5540 5534 5529 5524 5519 5515 5510 5505 5500 5495 5491 5487 5483 5479 5475 5471 5467 5463 5459 5456 5453 5450 5447 5444 5442 5441 5439 5439 5439 5438 5438 5438 5438 5439 5440 5440
5559 5555 5550 5546 5541 5536 5531 5525 5520 5516 5511 5506 5501 5496 5491 5486 5482 5478 5474 5470 5467 5463 5459 5455 5452 5449 5446 5443 5441 5438 5436 5435 5434 5433 5432 5431 5431 5432 5432 5432 5433 5434 5435
5547 5542 5538 5533 5528 5522 5517 5512 5507 5502 5498 5493 5488 5483 5478 5474 5469 5466 5462 5459 5456 5452 5449 5445 5442 5439 5437 5435 5433 5432 5431 5430 5429 5428 5428 5427 5427 5427 5427 5428 5429 5430 5431
5535 5531 5525 5520 5514 5509 5504 5498 5494 5489 5485 5480 5475 5470 5466 5462 5458 5455 5451 5449 5445 5442 5439 5436 5433 5431 5429 5428 5427 5426 5426 5426 5426 5426 5425 5424 5424 5424 5425 5425 5426 5427 5428